Reid Restricted Landing Area

Jump to: basic info | weather | runways | comments

Related pages: nearby airports | nearby navaids | notams | map

Basic information (top)

Codes: 6IL6
Location: lon 42.118401, lat -88.407898, elev 920 ft / 280 m msl
Status: small_airport

Weather (top)

Current conditions for Dupage Airport 15nm (27km) SSE (rec'd 2014/07/29 23:52Z):

KDPA 292352Z 26010KT 10SM CLR 22/15 A3000 RMK AO2 SLP157 60000 T02220150 10272 20217 55003

Airport forecast for Dupage Airport 15nm (27km) SSE (rec'd 2014/07/29 00:39Z):

TAF KDPA 292337Z 3000/3024 27007KT P6SM SCT060 SCT150 
     FM301500 30009KT P6SM SCT045 SCT150 
     FM301900 30009KT P6SM VCSH BKN045

Runways (top)

E/W: 3,000 x 105 ft (914 x 32 m) — grass — not lighted

N/S: 2,100 x 105 ft (640 x 32 m) — grass — not lighted

Latest comments (top)

No comments yet for Reid Restricted Landing Area

More... (top)

See also NOTAMs and nearby airports and navaids, or visit the Reid Restricted Landing Area page at the main OurAirports website..